Change the Weather History Date:

Wednesday, November 20, 2013

  Actual Average Record
Temperature  
Mean Temperature 46 °F 45 °F  
Max Temperature 56 °F 55 °F 75 °F (1982)
Min Temperature 35 °F 35 °F 16 °F (1951)
Degree Days  
Heating Degree Days 19 20  
Month to date heating degree days 344 325  
Since 1 July heating degree days 617 628  
Cooling Degree Days 0 0  
Month to date cooling degree days 0 0  
Year to date cooling degree days 1073 1352  
Moisture  
Dew Point 27 °F    
Average Humidity 49    
Maximum Humidity 70    
Minimum Humidity 27    
Precipitation  
Precipitation T in 0.16 in 1.90 in (1956)
Month to date precipitation 1.48 3.01  
Year to date precipitation 48.87 41.01  
Sea Level Pressure  
Sea Level Pressure 30.10 in    
Wind  
Wind Speed 9 mph (SE)    
Max Wind Speed 18 mph    
Max Gust Speed 23 mph    
Visibility 10 miles    
Events      
T = Trace of Precipitation, MM = Missing Value Source: NWS Daily Summary

Daily Weather History Graph

Daily Weather History Graph

Search for Another Location

Airport or City:

Trip Planner

Search our weather history database for the weather conditions in past years. The results will help you decide how hot, cold, wet, or windy it might be!

Date:

Astronomy

Nov. 20, 2013 Rise Set
Actual Time 6:51 AM CST 4:54 PM CST
Civil Twilight 6:23 AM CST 5:22 PM CST
Nautical Twilight 5:51 AM CST 5:54 PM CST
Astronomical Twilight 5:20 AM CST 6:25 PM CST
Moon 7:38 PM CST (11/20) 9:16 AM CST (11/20)
Length of Visible Light 10h 59m
Length of Day
10h 03m
Waning Gibbous, 91% of the Moon is Illuminated
Nov 20
Waning Gibbous
Nov 25
Last Quarter
Dec 2
New
Dec 9
First Quarter
Dec 17
Full

Hourly Weather History & Observations

Time (CST) Temp. Windchill Dew Point Humidity Pressure Visibility Wind Dir Wind Speed Gust Speed Precip Events Conditions
12:53 AM 39.0 °F 33.4 °F 25.0 °F 57% 30.16 in 10.0 mi SE 8.1 mph - N/A   Mostly Cloudy
1:53 AM 37.9 °F 34.4 °F 26.1 °F 62% 30.17 in 10.0 mi SSE 4.6 mph - N/A   Clear
2:53 AM 36.0 °F 32.1 °F 26.1 °F 67% 30.17 in 10.0 mi ESE 4.6 mph - N/A   Clear
3:53 AM 36.0 °F 33.3 °F 26.1 °F 67% 30.17 in 10.0 mi SE 3.5 mph - N/A   Clear
4:53 AM 35.1 °F 29.3 °F 26.1 °F 70% 30.15 in 10.0 mi ESE 6.9 mph - N/A   Scattered Clouds
5:53 AM 36.0 °F 32.1 °F 27.0 °F 70% 30.15 in 10.0 mi Variable 4.6 mph - N/A   Overcast
6:53 AM 36.0 °F 32.1 °F 27.0 °F 70% 30.14 in 10.0 mi SE 4.6 mph - N/A   Scattered Clouds
7:53 AM 37.0 °F 33.3 °F 27.0 °F 67% 30.15 in 10.0 mi SE 4.6 mph - N/A   Mostly Cloudy
8:53 AM 41.0 °F 35.2 °F 28.0 °F 60% 30.15 in 10.0 mi SE 9.2 mph - N/A   Mostly Cloudy
9:53 AM 43.0 °F 37.7 °F 27.0 °F 53% 30.14 in 10.0 mi SSE 9.2 mph - N/A   Mostly Cloudy
10:53 AM 45.0 °F 41.2 °F 27.0 °F 49% 30.12 in 10.0 mi SE 6.9 mph - N/A   Mostly Cloudy
11:53 AM 48.0 °F - 25.0 °F 41% 30.07 in 10.0 mi SSE 15.0 mph - N/A   Overcast
12:53 PM 53.1 °F - 24.1 °F 32% 30.04 in 10.0 mi SSE 13.8 mph 21.9 mph N/A   Partly Cloudy
1:53 PM 53.1 °F - 24.1 °F 32% 30.02 in 10.0 mi SSE 9.2 mph - N/A   Overcast
2:53 PM 54.0 °F - 23.0 °F 30% 30.01 in 10.0 mi SE 10.4 mph - N/A   Overcast
3:53 PM 55.0 °F - 23.0 °F 29% 30.00 in 10.0 mi SSE 13.8 mph - N/A   Mostly Cloudy
4:53 PM 53.1 °F - 25.0 °F 34% 30.03 in 10.0 mi SE 6.9 mph - N/A   Overcast
5:53 PM 51.1 °F - 26.1 °F 38% 30.04 in 10.0 mi SSE 10.4 mph - N/A   Partly Cloudy
6:53 PM 50.0 °F - 28.0 °F 43% 30.06 in 10.0 mi SSE 9.2 mph - N/A   Scattered Clouds
7:53 PM 48.9 °F - 30.9 °F 50% 30.07 in 10.0 mi SSE 9.2 mph - N/A   Partly Cloudy
8:53 PM 48.0 °F - 32.0 °F 54% 30.08 in 10.0 mi SSE 9.2 mph - N/A   Mostly Cloudy
9:53 PM 48.0 °F - 32.0 °F 54% 30.08 in 10.0 mi SSE 10.4 mph - N/A   Mostly Cloudy
10:53 PM 48.9 °F - 33.1 °F 54% 30.06 in 10.0 mi SSE 16.1 mph - 0.00 in   Mostly Cloudy
11:53 PM 50.0 °F - 34.0 °F 54% 30.08 in 10.0 mi South 8.1 mph - 0.00 in   Mostly Cloudy